• In Uzbekistan
  • List of Countries
  • For 7 days
  • Water Temperature
  • Satellite Maps
  • Weather Map
  • Weather Widgets
  • user-avatar
    Login

    Hourly Weather Korçe

    Today, 8 December, Thursday

    Time Temperature Precipitation Wind Pressure Humidity
    00:00 -2°C° 0 mm 2 mps 676 mmHg 78%
    01:00 -3°C° 0 mm 2 mps 676 mmHg 78%
    02:00 -3°C° 0 mm 2 mps 676 mmHg 79%
    03:00 -3°C° 0 mm 2 mps 676 mmHg 79%
    04:00 -3°C° 0 mm 2 mps 676 mmHg 79%
    05:00 -3°C° 0 mm 2 mps 676 mmHg 79%
    06:00 -3°C° 0 mm 2 mps 676 mmHg 80%
    07:00 -3°C° 0 mm 2 mps 676 mmHg 80%
    08:00 -1°C° 0 mm 2 mps 677 mmHg 72%
    09:00 +2°C° 0 mm 2 mps 678 mmHg 64%
    10:00 +5°C° 0 mm 1 mps 678 mmHg 57%
    11:00 +6°C° 0 mm 1 mps 678 mmHg 54%
    12:00 +7°C° 0 mm 1 mps 678 mmHg 51%
    13:00 +8°C° 0 mm 1 mps 678 mmHg 49%
    14:00 +6°C° 0 mm 1 mps 677 mmHg 59%
    15:00 +4°C° 0 mm 1 mps 677 mmHg 69%
    16:00 +2°C° 0 mm 1 mps 676 mmHg 80%
    17:00 +1°C° 0 mm 1 mps 676 mmHg 82%
    18:00 +1°C° 0 mm 1 mps 676 mmHg 83%
    19:00 0°C° 0 mm 1 mps 675 mmHg 85%
    20:00 0°C° 0 mm 1 mps 675 mmHg 85%
    21:00 0°C° 0 mm 1 mps 675 mmHg 85%
    22:00 0°C° 0 mm 1 mps 675 mmHg 85%
    23:00 -1°C° 0 mm 1 mps 675 mmHg 83%

    Tomorrow, 9 December, Friday

    Time Temperature Precipitation Wind Pressure Humidity
    00:00 -1°C° 0 mm 1 mps 674 mmHg 81%
    01:00 -1°C° 0 mm 1 mps 674 mmHg 80%
    02:00 -1°C° 0 mm 1 mps 674 mmHg 78%
    03:00 -1°C° 0 mm 1 mps 674 mmHg 76%
    04:00 -1°C° 0 mm 1 mps 673 mmHg 74%
    05:00 -1°C° 0 mm 1 mps 673 mmHg 70%
    06:00 -1°C° 0 mm 1 mps 673 mmHg 66%
    07:00 -1°C° 0 mm 1 mps 673 mmHg 63%
    08:00 +2°C° 0 mm 1 mps 674 mmHg 53%
    09:00 +5°C° 0 mm 1 mps 675 mmHg 43%
    10:00 +7°C° 0 mm 1 mps 675 mmHg 34%
    11:00 +8°C° 0 mm 1 mps 675 mmHg 35%
    12:00 +9°C° 0 mm 1 mps 675 mmHg 36%
    13:00 +8°C° 0 mm 2 mps 674 mmHg 37%
    14:00 +6°C° 0 mm 2 mps 674 mmHg 47%
    15:00 +5°C° 0 mm 1 mps 673 mmHg 56%
    16:00 +2°C° 0 mm 1 mps 672 mmHg 66%
    17:00 +2°C° 0 mm 1 mps 672 mmHg 66%
    18:00 +1°C° 0 mm 1 mps 672 mmHg 67%
    19:00 +1°C° 0 mm 1 mps 672 mmHg 67%
    20:00 +1°C° 0 mm 1 mps 671 mmHg 64%
    21:00 +1°C° 0 mm 1 mps 671 mmHg 61%
    22:00 +1°C° 0 mm 1 mps 671 mmHg 58%
    23:00 0°C° 0 mm 1 mps 671 mmHg 57%

    Day after tomorrow, 10 December, Saturday

    Time Temperature Precipitation Wind Pressure Humidity
    00:00 0°C° 0 mm 1 mps 671 mmHg 56%
    01:00 0°C° 0 mm 1 mps 671 mmHg 54%
    02:00 0°C° 0 mm 1 mps 670 mmHg 53%
    03:00 0°C° 0 mm 1 mps 670 mmHg 52%
    04:00 0°C° 0 mm 1 mps 670 mmHg 51%
    05:00 0°C° 0 mm 1 mps 670 mmHg 50%
    06:00 0°C° 0 mm 1 mps 670 mmHg 49%
    07:00 0°C° 0 mm 1 mps 670 mmHg 48%
    08:00 +3°C° 0 mm 1 mps 671 mmHg 44%
    09:00 +6°C° 0 mm 1 mps 672 mmHg 40%
    10:00 +9°C° 0 mm 1 mps 672 mmHg 36%
    11:00 +10°C° 0 mm 1 mps 672 mmHg 37%
    12:00 +10°C° 0 mm 1 mps 672 mmHg 37%
    13:00 +11°C° 0 mm 1 mps 672 mmHg 38%
    14:00 +9°C° 0 mm 1 mps 671 mmHg 48%
    15:00 +6°C° 0 mm 1 mps 671 mmHg 58%
    16:00 +3°C° 0 mm 1 mps 670 mmHg 68%
    17:00 +3°C° 0 mm 1 mps 670 mmHg 70%
    18:00 +2°C° 0 mm 1 mps 670 mmHg 71%
    19:00 +1°C° 0 mm 1 mps 669 mmHg 73%
    20:00 +1°C° 0 mm 1 mps 669 mmHg 74%
    21:00 +1°C° 0 mm 1 mps 669 mmHg 76%
    22:00 0°C° 0 mm 0 mps 669 mmHg 77%
    23:00 0°C° 0 mm 0 mps 669 mmHg 77%

    11 December, Sunday

    Time Temperature Precipitation Wind Pressure Humidity
    00:00 0°C° 0 mm 0 mps 669 mmHg 78%
    01:00 0°C° 0 mm 0 mps 669 mmHg 78%
    02:00 0°C° 0 mm 0 mps 668 mmHg 78%
    03:00 0°C° 0 mm 0 mps 668 mmHg 78%
    04:00 -1°C° 0 mm 0 mps 668 mmHg 78%
    05:00 -1°C° 0 mm 0 mps 668 mmHg 77%
    06:00 -1°C° 0 mm 0 mps 668 mmHg 76%
    07:00 -1°C° 0 mm 0 mps 667 mmHg 75%
    08:00 +3°C° 0 mm 0 mps 668 mmHg 63%
    09:00 +6°C° 0 mm 0 mps 669 mmHg 51%
    10:00 +9°C° 0 mm 0 mps 670 mmHg 38%
    11:00 +9°C° 0 mm 0 mps 670 mmHg 40%
    12:00 +11°C° 0 mm 1 mps 670 mmHg 41%
    13:00 +11°C° 0 mm 1 mps 669 mmHg 42%
    14:00 +9°C° 0 mm 1 mps 668 mmHg 53%
    15:00 +6°C° 0 mm 1 mps 667 mmHg 64%
    16:00 +4°C° 0 mm 1 mps 667 mmHg 76%
    17:00 +3°C° 0 mm 1 mps 666 mmHg 78%
    18:00 +2°C° 0 mm 1 mps 666 mmHg 80%
    19:00 +1°C° 0 mm 1 mps 666 mmHg 82%
    20:00 +1°C° 0 mm 1 mps 666 mmHg 81%
    21:00 +1°C° 0 mm 1 mps 666 mmHg 80%
    22:00 +1°C° 0 mm 1 mps 666 mmHg 79%
    23:00 +1°C° 0 mm 1 mps 665 mmHg 79%

    12 December, Monday

    Time Temperature Precipitation Wind Pressure Humidity
    00:00 +1°C° 0 mm 1 mps 665 mmHg 79%
    01:00 0°C° 0 mm 1 mps 665 mmHg 78%
    02:00 0°C° 0 mm 1 mps 665 mmHg 78%
    03:00 0°C° 0 mm 1 mps 664 mmHg 78%
    04:00 0°C° 0 mm 1 mps 664 mmHg 78%
    05:00 0°C° 0 mm 1 mps 664 mmHg 78%
    06:00 0°C° 0 mm 1 mps 664 mmHg 78%
    07:00 0°C° 0 mm 1 mps 664 mmHg 78%
    08:00 +2°C° 0 mm 1 mps 665 mmHg 71%
    09:00 +5°C° 0 mm 1 mps 666 mmHg 64%
    10:00 +7°C° 0 mm 1 mps 666 mmHg 56%
    11:00 +8°C° 0 mm 1 mps 666 mmHg 55%
    12:00 +8°C° 0 mm 2 mps 666 mmHg 54%
    13:00 +8°C° 0 mm 2 mps 666 mmHg 53%
    14:00 +6°C° 0 mm 2 mps 665 mmHg 63%
    15:00 +4°C° 0 mm 2 mps 665 mmHg 73%
    16:00 +3°C° 0 mm 1 mps 664 mmHg 83%
    17:00 +3°C° 0 mm 1 mps 664 mmHg 84%
    18:00 +2°C° 0 mm 1 mps 665 mmHg 85%
    19:00 +1°C° 0 mm 1 mps 665 mmHg 85%
    20:00 +1°C° 0 mm 1 mps 665 mmHg 84%
    21:00 -1°C° 0 mm 2 mps 665 mmHg 83%
    22:00 -1°C° 0 mm 2 mps 666 mmHg 82%
    23:00 -1°C° 0 mm 2 mps 666 mmHg 82%

    13 December, Tuesday

    Time Temperature Precipitation Wind Pressure Humidity
    00:00 -2°C° 0 mm 2 mps 666 mmHg 83%
    01:00 -2°C° 0 mm 2 mps 666 mmHg 84%
    02:00 -2°C° 0 mm 2 mps 666 mmHg 85%
    03:00 -2°C° 0 mm 2 mps 666 mmHg 85%
    04:00 -3°C° 0 mm 2 mps 666 mmHg 86%
    05:00 -3°C° 0 mm 2 mps 666 mmHg 86%
    06:00 -3°C° 0 mm 2 mps 667 mmHg 86%
    07:00 -3°C° 0 mm 2 mps 667 mmHg 86%
    08:00 -1°C° 0 mm 2 mps 668 mmHg 76%
    09:00 +2°C° 0 mm 2 mps 669 mmHg 66%
    10:00 +4°C° 0 mm 2 mps 669 mmHg 56%
    11:00 +5°C° 0 mm 2 mps 669 mmHg 52%
    12:00 +7°C° 0 mm 1 mps 670 mmHg 48%
    13:00 +8°C° 0 mm 1 mps 670 mmHg 45%
    14:00 +6°C° 0 mm 1 mps 669 mmHg 53%
    15:00 +4°C° 0 mm 1 mps 669 mmHg 61%
    16:00 +2°C° 0 mm 1 mps 668 mmHg 69%
    17:00 +2°C° 0 mm 1 mps 669 mmHg 72%
    18:00 +1°C° 0 mm 1 mps 669 mmHg 75%
    19:00 -2°C° 0 mm 2 mps 669 mmHg 78%
    20:00 -2°C° 0 mm 2 mps 669 mmHg 80%
    21:00 -2°C° 0 mm 2 mps 669 mmHg 81%
    22:00 -3°C° 0 mm 2 mps 670 mmHg 82%
    23:00 -3°C° 0 mm 2 mps 670 mmHg 82%
    Show more